TimeEDT,TemperatureF,Dew PointF,Humidity,Sea Level PressureIn,VisibilityMPH,Wind Direction,Wind SpeedMPH,Gust SpeedMPH,PrecipitationIn,Events,Conditions,WindDirDegrees,DateUTC
12:53 AM,73.0,69.1,87,30.09,6.0,Calm,Calm,-,N/A,,Clear,0,2013-09-10 04:53:00
1:53 AM,72.0,68.0,87,30.10,6.0,Calm,Calm,-,N/A,,Clear,0,2013-09-10 05:53:00
2:53 AM,70.0,66.9,90,30.11,4.0,Calm,Calm,-,N/A,,Clear,0,2013-09-10 06:53:00
3:53 AM,70.0,66.9,90,30.12,4.0,Calm,Calm,-,N/A,,Clear,0,2013-09-10 07:53:00
4:53 AM,69.1,66.0,90,30.12,4.0,Calm,Calm,-,N/A,,Clear,0,2013-09-10 08:53:00
5:53 AM,69.1,66.0,90,30.13,3.0,Calm,Calm,-,N/A,,Clear,0,2013-09-10 09:53:00
6:53 AM,69.1,66.0,90,30.15,3.0,Calm,Calm,-,N/A,,Clear,0,2013-09-10 10:53:00
7:53 AM,69.1,66.0,90,30.18,4.0,Calm,Calm,-,N/A,,Clear,0,2013-09-10 11:53:00
8:53 AM,73.0,68.0,84,30.19,7.0,Calm,Calm,-,N/A,,Clear,0,2013-09-10 12:53:00
9:53 AM,78.1,68.0,71,30.20,10.0,South,5.8,-,N/A,,Clear,190,2013-09-10 13:53:00
10:53 AM,82.0,66.9,60,30.20,10.0,SW,8.1,-,N/A,,Clear,220,2013-09-10 14:53:00
11:53 AM,84.0,66.0,55,30.19,10.0,SSW,8.1,-,N/A,,Clear,200,2013-09-10 15:53:00
12:53 PM,86.0,66.9,53,30.18,10.0,SSW,8.1,-,N/A,,Clear,200,2013-09-10 16:53:00
1:53 PM,86.0,68.0,55,30.18,10.0,South,8.1,-,N/A,,Mostly Cloudy,190,2013-09-10 17:53:00
2:53 PM,87.1,68.0,53,30.17,10.0,Calm,Calm,-,N/A,,Scattered Clouds,0,2013-09-10 18:53:00
3:53 PM,87.1,68.0,53,30.15,10.0,Variable,4.6,-,0.00,,Mostly Cloudy,0,2013-09-10 19:53:00
4:53 PM,87.1,66.9,51,30.12,10.0,South,5.8,-,N/A,,Mostly Cloudy,180,2013-09-10 20:53:00
5:53 PM,86.0,68.0,55,30.12,10.0,SSE,4.6,-,N/A,,Clear,160,2013-09-10 21:53:00
6:53 PM,84.9,69.1,59,30.13,10.0,SSW,4.6,-,N/A,,Clear,200,2013-09-10 22:53:00
7:53 PM,81.0,71.1,72,30.14,10.0,Calm,Calm,-,N/A,,Clear,0,2013-09-10 23:53:00
8:53 PM,78.1,72.0,81,30.16,9.0,Calm,Calm,-,N/A,,Clear,0,2013-09-11 00:53:00
9:53 PM,75.9,71.1,85,30.17,8.0,Calm,Calm,-,N/A,,Clear,0,2013-09-11 01:53:00
10:53 PM,73.9,71.1,91,30.18,5.0,Calm,Calm,-,N/A,,Clear,0,2013-09-11 02:53:00
11:53 PM,73.0,70.0,90,30.18,5.0,Calm,Calm,-,N/A,,Clear,0,2013-09-11 03:53:00